[[{"header":{"parameterUnit":"m.s-1","parameterCategory":1,"la1":30.2991,"la2":30.254,"lo1":-89.0895,"lo2":-89.0444,"dy":0.0017,"dx":0.0017,"nx":28,"ny":28,"refTime":"2024-08-08T03:00:00:Z","depth":0,"parameterNumber":2,"parameterNumberName":"U-component_of_WINDS"},"data":[0,0,0,0,0,0,0,0,0,0,0,0,0,0,0,0,0,0,0,0,0,0,0,0,0,0,0,0,0,0,0,0,0,0,0,0,0,0,0,0,0,0,0,0,0,0,0,0,0,0,0,0,0,0,0,0,0,0,0.7502,0.7504,0,0.764,0.7641,0.7643,0.7626,0.7623,0.7621,0.7619,0.7767,0.7773,0.7779,0,0,0,0,0,0,0,0,0,0,0,0,0,0.7231,0.7236,0.7502,0.7504,0.7505,0.764,0.7641,0.7643,0.7626,0.7623,0.762,0.7618,0.7765,0.7772,0.778,0,0,0,0,0,0,0,0,0,0,0,0,0,0.7357,0.7238,0.7502,0.7513,0.7515,0.7639,0.7642,0.7644,0.7627,0.7623,0.762,0.7617,0.7763,0.7772,0.7781,0.7905,0,0,0.7808,0.7812,0,0,0,0,0,0,0,0,0.735,0.7367,0.7509,0.7512,0.7515,0.7612,0.76,0.7732,0.7627,0.7585,0.7619,0.7615,0.7719,0.7731,0.7765,0.7912,0.7918,0.7809,0.7815,0.7819,0.7821,0,0,0,0,0,0,0,0.7341,0.7361,0.7557,0.7511,0.7515,0.7513,0.7527,0.7625,0.7669,0.7588,0.7587,0.7603,0.772,0.7756,0.7768,0.792,0.7809,0.7817,0.7823,0.7826,0.8178,0.8181,0,0,0,0,0,0,0.7328,0.7354,0.7552,0.7561,0.7422,0.7521,0.7537,0.7584,0.7668,0.7677,0.7606,0.7602,0.7742,0.7758,0.7773,0.7925,0.7819,0.7827,0.7832,0.8174,0.8179,0.8183,0,0,0,0,0,0,0.7323,0.7346,0.7547,0.7457,0.7482,0.7529,0.7583,0.7589,0.7625,0.7682,0.769,0.7635,0.774,0.7761,0.7872,0.793,0.7831,0.7839,0.8169,0.8175,0.8181,0.823,0,0,0,0,0,0,0.7315,0.7344,0.739,0.7458,0.7487,0.7641,0.7586,0.7594,0.764,0.7636,0.7711,0.772,0.7739,0.7859,0.7881,0.7941,0.7847,0.8164,0.8172,0.8179,0.8223,0.8236,0.8248,0,0,0,0,0,0.7305,0.74,0.7393,0.7417,0.7545,0.7644,0.7661,0.768,0.7645,0.7693,0.7729,0.7717,0.792,0.787,0.7895,0.7959,0.8161,0.817,0.8178,0.8218,0.8234,0.8248,0,0,0,0,0,0,0.734,0.7409,0.7402,0.752,0.7576,0.7641,0.7702,0.7696,0.7765,0.7759,0.778,0.7798,0.7911,0.7946,0.7889,0.8084,0.8036,0.805,0.8057,0.8073,0.8085,0.8075,0.7854,0,0,0,0,0,0.7361,0.7433,0.7491,0.759,0.7618,0.7655,0.7699,0.7708,0.7768,0.7793,0.7837,0.7898,0.7975,0.8026,0.81,0.8228,0.8245,0.8284,0.8296,0.8306,0.8319,0.8391,0.8409,0.8212,0.8212,0.8211,0,0,0.7406,0.7453,0.7498,0.7598,0.7643,0.772,0.7676,0.7759,0.7817,0.7806,0.7914,0.7949,0.8018,0.8138,0.8194,0.8171,0.8377,0.8317,0.8325,0.8332,0.8402,0.842,0.8437,0.8218,0.8216,0.8216,0,0,0.7528,0.7569,0.7657,0.7702,0.7769,0.7793,0.7814,0.788,0.7903,0.801,0.8004,0.8075,0.8207,0.8257,0.83,0.844,0.8433,0.8464,0.853,0.8599,0.8615,0.8629,0.8681,0.8699,0.8476,0.8476,0.8477,0,0.7576,0.7689,0.7704,0.7788,0.7833,0.7824,0.7915,0.7959,0.8048,0.8081,0.8053,0.822,0.8266,0.8398,0.8433,0.8467,0.8494,0.8457,0.8611,0.8625,0.8639,0.8689,0.8708,0.848,0.8479,0.8479,0.8479,0,0.7746,0.7826,0.7889,0.7973,0.8025,0.8112,0.8142,0.8194,0.8198,0.8226,0.8337,0.8392,0.8477,0.8509,0.8515,0.8644,0.8628,0.8606,0.8558,0.8661,0.8708,0.8727,0.8485,0.8483,0.8482,0.8482,0,0,0.7895,0.7985,0.8008,0.8046,0.812,0.8183,0.827,0.8351,0.8397,0.8458,0.8534,0.8646,0.8626,0.8675,0.8686,0.8747,0.8857,0.8718,0.872,0.8743,0.9004,0.9022,0.9043,0.8852,0.8856,0.8859,0.8999,0,0.8025,0.8177,0.8193,0.833,0.8405,0.8397,0.8474,0.8529,0.8557,0.8626,0.8658,0.8738,0.8704,0.8734,0.8794,0.8831,0.891,0.8821,0.8926,0.8929,0.891,0.9068,0.9086,0.9216,0.9018,0.9021,0.9023,0,0.8197,0.8262,0.8406,0.847,0.8502,0.857,0.8646,0.8712,0.8774,0.8791,0.8845,0.8848,0.8941,0.8888,0.9018,0.8957,0.9001,0.9026,0.9031,0.9043,0.8983,0.9086,0.9258,0.9278,0.9052,0.905,0.9048,0,0.8293,0.8417,0.8519,0.8552,0.8628,0.8677,0.8711,0.877,0.8818,0.8886,0.8918,0.8996,0.904,0.9102,0.9127,0.9086,0.9256,0.9205,0.9275,0.9274,0.9312,0.931,0.9496,0.9338,0.9337,0.9337,0.9336,0,0.8438,0.8527,0.8563,0.8626,0.8727,0.8744,0.8844,0.8877,0.8929,0.9,0.8999,0.9067,0.9095,0.9168,0.9189,0.9294,0.9314,0.9331,0.9336,0.9333,0.9331,0.9363,0.9355,0.9342,0.9341,0.934,0.9339,0,0.8563,0.859,0.8702,0.8764,0.8782,0.8854,0.8908,0.8971,0.8997,0.9088,0.911,0.9154,0.9239,0.927,0.9375,0.9389,0.9512,0.9508,0.949,0.9491,0.956,0.9554,0.9774,0.9805,0.9625,0.9627,0.9628,0,0.8655,0.8723,0.8792,0.8838,0.8874,0.8949,0.8998,0.9018,0.907,0.9146,0.92,0.9285,0.9353,0.9491,0.9533,0.9614,0.9614,0.9685,0.9626,0.962,0.9617,0.9613,0.9621,0.9697,0.9699,0.97,0.9701,0,0.8815,0.8825,0.8893,0.8968,0.9026,0.9086,0.9144,0.9183,0.9213,0.9271,0.9357,0.941,0.9516,0.9601,0.9683,0.9721,0.9718,0.9719,0.974,0.9738,0.9725,0.9735,0.9522,0.9715,0.9713,0.9713,0.9712,0.9711,0.8927,0.8987,0.9046,0.9123,0.9169,0.9223,0.9285,0.9319,0.939,0.9477,0.9485,0.9578,0.9641,0.975,0.9792,0.9867,0.9848,0.9878,0.9886,0.9893,0.9899,0.9711,0.9882,0.9882,0.9882,0.9882,0.9881,0,0.9089,0.9125,0.9196,0.9277,0.9338,0.9326,0.939,0.9443,0.9525,0.9582,0.9649,0.9749,0.9831,0.9879,0.9962,1.0013,1.0014,1.0035,1.0032,1.0042,0.9911,0.9885,1.0033,1.0033,1.0033,1.0033,1.0033,1.0033,0.918,0.9282,0.9299,0.9424,0.9461,0.9551,0.9589,0.964,0.9686,0.9797,0.9864,0.9894,0.9949,1.0035,1.0111,1.0123,1.0155,1.0178,1.0189,1.0066,1.0051,1.0036,1.0012,1.0184,1.0184,1.0314,1.0315,1.0316]},{"header":{"parameterUnit":"m.s-1","parameterCategory":1,"la1":30.2991,"la2":30.254,"lo1":-89.0895,"lo2":-89.0444,"dy":0.0017,"dx":0.0017,"nx":28,"ny":28,"refTime":"2024-08-08T03:00:00:Z","depth":0,"parameterNumber":3,"parameterNumberName":"V-component_of_WINDS"},"data":[0,0,0,0,0,0,0,0,0,0,0,0,0,0,0,0,0,0,0,0,0,0,0,0,0,0,0,0,0,0,0,0,0,0,0,0,0,0,0,0,0,0,0,0,0,0,0,0,0,0,0,0,0,0,0,0,0,0,0.0569,0.057,0,0.0643,0.0644,0.0645,0.0623,0.0621,0.062,0.0618,0.0693,0.0697,0.07,0,0,0,0,0,0,0,0,0,0,0,0,0,0.0404,0.0407,0.0569,0.057,0.0571,0.0643,0.0644,0.0645,0.0623,0.0621,0.0619,0.0618,0.0692,0.0696,0.07,0,0,0,0,0,0,0,0,0,0,0,0,0,0.0477,0.0408,0.0569,0.0568,0.0569,0.0643,0.0644,0.0645,0.0624,0.0621,0.0619,0.0617,0.0691,0.0696,0.0701,0.0779,0,0,0.0717,0.0719,0,0,0,0,0,0,0,0,0.0473,0.0483,0.0568,0.0569,0.057,0.0621,0.0613,0.069,0.0624,0.0603,0.0618,0.0616,0.0671,0.0678,0.0697,0.0782,0.0785,0.0717,0.072,0.0722,0.0724,0,0,0,0,0,0,0,0.0468,0.0479,0.0598,0.0569,0.057,0.0563,0.0571,0.0628,0.0649,0.0605,0.0603,0.0612,0.0671,0.0692,0.0698,0.0786,0.0717,0.0721,0.0725,0.0727,0.0934,0.0936,0,0,0,0,0,0,0.0462,0.0475,0.0596,0.06,0.0514,0.0568,0.0577,0.0607,0.0648,0.0652,0.0614,0.0611,0.0684,0.0692,0.0701,0.0791,0.0722,0.0727,0.073,0.0931,0.0934,0.0937,0,0,0,0,0,0,0.0459,0.0473,0.0593,0.0537,0.0552,0.0574,0.0607,0.061,0.063,0.0656,0.0659,0.0632,0.0683,0.0694,0.0758,0.0793,0.0729,0.0734,0.0928,0.0932,0.0935,0.0973,0,0,0,0,0,0,0.0454,0.0472,0.0503,0.0538,0.0555,0.065,0.061,0.0613,0.0639,0.0636,0.0673,0.0677,0.0682,0.0751,0.0763,0.0799,0.0738,0.0925,0.093,0.0934,0.0969,0.0978,0.0985,0,0,0,0,0,0.0448,0.0512,0.0505,0.0519,0.0594,0.0652,0.0662,0.0667,0.0642,0.0672,0.0688,0.0675,0.0788,0.0757,0.0772,0.0809,0.0923,0.0929,0.0934,0.0965,0.0976,0.0985,0,0,0,0,0,0,0.0481,0.0516,0.0509,0.0586,0.0616,0.0649,0.0687,0.0679,0.0716,0.0712,0.0716,0.0724,0.0789,0.0806,0.0772,0.0884,0.0851,0.086,0.087,0.0881,0.0889,0.0882,0.0742,0,0,0,0,0,0.0497,0.0542,0.057,0.0635,0.065,0.0666,0.0692,0.0692,0.0724,0.0736,0.0757,0.0787,0.0828,0.0856,0.0896,0.0972,0.0977,0.1004,0.1012,0.1019,0.1025,0.1062,0.1073,0.0955,0.0954,0.0954,0,0,0.053,0.0555,0.0584,0.0642,0.0665,0.071,0.0677,0.0727,0.0759,0.0744,0.0805,0.0821,0.0855,0.0924,0.0955,0.094,0.1059,0.1026,0.1031,0.1034,0.1069,0.108,0.109,0.0958,0.0958,0.0957,0,0,0.0613,0.0639,0.0693,0.0716,0.0752,0.0761,0.0774,0.0807,0.0817,0.0879,0.0867,0.0905,0.0978,0.1001,0.1022,0.1109,0.1098,0.1123,0.1164,0.12,0.1209,0.1217,0.1245,0.1255,0.1129,0.113,0.113,0,0.065,0.0718,0.0722,0.0771,0.0795,0.0783,0.0837,0.0859,0.0906,0.0922,0.0904,0.0992,0.1015,0.1086,0.1107,0.1127,0.1139,0.1118,0.1208,0.1216,0.1223,0.125,0.126,0.1132,0.1132,0.1131,0.1131,0,0.0759,0.0806,0.0846,0.0889,0.0918,0.097,0.098,0.1008,0.1006,0.1016,0.1077,0.1103,0.1146,0.1163,0.1163,0.1234,0.1223,0.1207,0.1173,0.1237,0.1261,0.1272,0.1136,0.1135,0.1134,0.1133,0,0,0.0866,0.0909,0.0923,0.0941,0.0977,0.1013,0.1062,0.1103,0.1126,0.1158,0.1197,0.1257,0.1241,0.1265,0.1266,0.1298,0.136,0.1277,0.1278,0.1288,0.1436,0.1446,0.1458,0.1354,0.1356,0.1357,0.1432,0,0.0949,0.1036,0.1039,0.1117,0.1158,0.1145,0.1187,0.1213,0.1224,0.1259,0.127,0.1311,0.1289,0.1302,0.1333,0.1346,0.1389,0.1341,0.1387,0.1389,0.1376,0.1471,0.1483,0.1553,0.1442,0.1444,0.1445,0,0.1059,0.1092,0.1174,0.12,0.1217,0.1256,0.1291,0.1326,0.1354,0.1359,0.1384,0.1379,0.1427,0.1393,0.1457,0.1424,0.1443,0.1452,0.1455,0.1457,0.1419,0.1473,0.1576,0.1585,0.1461,0.146,0.1458,0,0.1123,0.1189,0.1245,0.1261,0.1295,0.1321,0.1336,0.1362,0.1385,0.1416,0.143,0.1467,0.1487,0.1514,0.1519,0.1495,0.1581,0.1549,0.1584,0.1584,0.1602,0.16,0.1705,0.1619,0.1619,0.1618,0.1618,0,0.1214,0.1264,0.1273,0.1308,0.1362,0.1365,0.1417,0.1431,0.1453,0.1487,0.148,0.1512,0.1518,0.1551,0.1555,0.1604,0.1615,0.1618,0.1618,0.1617,0.1616,0.1628,0.1622,0.1621,0.1621,0.162,0.162,0,0.1295,0.1304,0.1363,0.1389,0.1397,0.1435,0.1456,0.1488,0.1497,0.1541,0.1551,0.1565,0.1603,0.1611,0.1657,0.1659,0.1717,0.1714,0.1707,0.1706,0.1739,0.1735,0.1853,0.1867,0.1775,0.1776,0.1776,0,0.1351,0.1388,0.1417,0.144,0.1456,0.1493,0.1515,0.1519,0.1543,0.1575,0.1602,0.1639,0.1669,0.1731,0.1744,0.1778,0.1773,0.1812,0.1778,0.1775,0.1769,0.1766,0.1768,0.1818,0.1819,0.182,0.182,0,0.1448,0.145,0.1483,0.1517,0.1544,0.1572,0.1598,0.1616,0.1622,0.1649,0.1688,0.1711,0.1756,0.1792,0.1825,0.1839,0.183,0.1831,0.184,0.1839,0.1832,0.1832,0.1722,0.1828,0.1827,0.1827,0.1826,0.1826,0.1516,0.1547,0.1571,0.1607,0.1626,0.165,0.1679,0.1691,0.1723,0.176,0.176,0.1801,0.1824,0.1867,0.1883,0.1914,0.1902,0.1916,0.1919,0.1922,0.1923,0.1829,0.1921,0.1921,0.192,0.192,0.192,0,0.161,0.1624,0.1657,0.1692,0.172,0.1709,0.1736,0.1759,0.1795,0.1818,0.1847,0.1889,0.1923,0.1938,0.197,0.1992,0.1988,0.2,0.1997,0.2,0.1934,0.1921,0.2002,0.2002,0.2002,0.2002,0.2002,0.2002,0.1661,0.1712,0.1716,0.1774,0.1788,0.1828,0.1843,0.1863,0.1881,0.1928,0.1956,0.1965,0.1984,0.2017,0.2047,0.205,0.2061,0.2074,0.2075,0.2013,0.2005,0.1997,0.1985,0.2078,0.2078,0.2138,0.2138,0.2139]}]]